Weather History for Concord, NH

Change the Weather History Date:

Saturday, October 6, 2012

  Actual Average Record
Temperature  
Mean Temperature 61 °F 52 °F  
Max Temperature 78 °F 64 °F 84 °F (1946)
Min Temperature 44 °F 39 °F 20 °F (1984)
Degree Days  
Heating Degree Days 4 14  
Month to date heating degree days 30 76  
Since 1 July heating degree days 232 311  
Cooling Degree Days 0 0  
Month to date cooling degree days 1 0  
Year to date cooling degree days 569 450  
Growing Degree Days 13 (Base 50)    
Moisture  
Dew Point 53 °F    
Average Humidity 73    
Maximum Humidity 100    
Minimum Humidity 45    
Precipitation  
Precipitation T in 0.13 in 3.99 in (1962)
Month to date precipitation 0.43 0.78  
Year to date precipitation 30.54 30.43  
Snow  
Snow 0.00 in 0.00 in T in (1881)
Month to date snowfall 0.0 0.0  
Since 1 July snowfall 0.0 0.0  
Since 1 September snowfall 0.0 0.0  
Snow Depth 0.00 in    
Sea Level Pressure  
Sea Level Pressure 29.80 in    
Wind  
Wind Speed 5 mph (SSW)    
Max Wind Speed 20 mph    
Max Gust Speed 25 mph    
Visibility 8 miles    
Events Rain    
T = Trace of Precipitation, MM = Missing Value Source: NWS Daily Summary

Daily Weather History Graph

Daily Weather History Graph

Search for Another Location

Airport:

Trip Planner

Search our weather history database for the weather conditions in past years. The results will help you decide how hot, cold, wet, or windy it might be!

Date:

Astronomy

Oct. 06, 2012 Rise Set
Actual Time 6:49 AM EDT 6:17 PM EDT
Civil Twilight 6:21 AM EDT 6:45 PM EDT
Nautical Twilight 5:48 AM EDT 7:18 PM EDT
Astronomical Twilight 5:15 AM EDT 7:51 PM EDT
Moon 10:23 PM EDT (10/6) 12:49 PM EDT (10/6)
Length of Visible Light 12h 24m
Length of Day
11h 27m
Waning Gibbous, 65% of the Moon is Illuminated
Oct 6
Waning Gibbous
Oct 8
Last Quarter
Oct 15
New
Oct 21
First Quarter
Oct 29
Full

Hourly Weather History & Observations

Time (EDT) Temp. Dew Point Humidity Pressure Visibility Wind Dir Wind Speed Gust Speed Precip Events Conditions
12:51 AM 57.0 °F 55.9 °F 96% 29.88 in 6.0 mi Calm Calm - N/A   Overcast
1:51 AM 57.9 °F 55.9 °F 93% 29.87 in 7.0 mi Calm Calm - N/A   Overcast
2:51 AM 57.0 °F 55.9 °F 96% 29.86 in 7.0 mi Calm Calm - N/A   Scattered Clouds
3:31 AM 55.4 °F 53.6 °F 94% 29.84 in 2.5 mi Calm Calm - N/A   Clear
3:41 AM 55.4 °F 53.6 °F 94% 29.84 in 4.0 mi Calm Calm - N/A   Clear
3:51 AM 55.0 °F 55.0 °F 100% 29.85 in 5.0 mi Calm Calm - N/A   Clear
4:51 AM 55.9 °F 54.0 °F 93% 29.83 in 6.0 mi SE 3.5 mph - N/A   Clear
5:51 AM 55.0 °F 54.0 °F 96% 29.82 in 5.0 mi Calm Calm - N/A   Clear
6:51 AM 55.0 °F 54.0 °F 96% 29.82 in 4.0 mi SE 4.6 mph - N/A   Clear
7:51 AM 57.2 °F 55.4 °F 94% 29.80 in 3.0 mi SSE 4.6 mph - N/A   Clear
8:51 AM 61.0 °F 57.0 °F 87% 29.80 in 6.0 mi SE 6.9 mph - N/A   Clear
9:51 AM 64.0 °F 57.9 °F 80% 29.79 in 8.0 mi SE 5.8 mph - N/A   Clear
10:51 AM 70.0 °F 59.0 °F 68% 29.77 in 10.0 mi SSE 8.1 mph - N/A   Clear
11:51 AM 73.9 °F 59.0 °F 59% 29.73 in 10.0 mi SSE 10.4 mph 19.6 mph N/A   Clear
12:51 PM 73.0 °F 57.0 °F 57% 29.71 in 10.0 mi South 10.4 mph 17.3 mph N/A   Clear
1:51 PM 78.1 °F 55.9 °F 46% 29.67 in 10.0 mi SSW 13.8 mph 21.9 mph N/A   Clear
2:51 PM 73.9 °F 55.0 °F 52% 29.66 in 10.0 mi SW 6.9 mph - N/A   Overcast
3:51 PM 66.2 °F 60.8 °F 83% 29.69 in 5.0 mi West 5.8 mph - N/A Rain Light Rain
4:51 PM 63.0 °F 55.9 °F 78% 29.73 in 10.0 mi WNW 12.7 mph 23.0 mph 0.00 in   Overcast
5:27 PM 60.8 °F 51.8 °F 72% 29.77 in 10.0 mi NW 10.4 mph - 0.00 in   Overcast
5:51 PM 59.0 °F 50.0 °F 72% 29.77 in 10.0 mi NW 11.5 mph - N/A   Overcast
6:51 PM 57.2 °F 46.4 °F 67% 29.80 in 10.0 mi WNW 8.1 mph - N/A   Overcast
7:51 PM 54.0 °F 46.0 °F 75% 29.82 in 10.0 mi NW 4.6 mph - N/A   Clear
8:51 PM 53.1 °F 45.0 °F 74% 29.85 in 10.0 mi West 5.8 mph - N/A   Clear
9:51 PM 52.0 °F 45.0 °F 77% 29.88 in 10.0 mi Calm Calm - N/A   Scattered Clouds
10:51 PM 48.9 °F 43.0 °F 80% 29.89 in 10.0 mi Calm Calm - N/A   Clear
11:51 PM 45.0 °F 42.1 °F 90% 29.91 in 10.0 mi Calm Calm - N/A   Clear